Flag for United Kingdom Weather past 2 weeks in Stafford, England, United Kingdom

Now
79 °F

Warm.


Feels Like: 79 °F
Forecast: 54 / 79 °F
Wind: 7 mph from Northeast

Location: Shawbury

Current Time: Jul 25, 2014 at 8:19:59 PM

Latest Report: Jul 25, 2014 at 7:50 PM


Visibility: N/A

Pressure: 30.04 "Hg

Humidity: 42%

Dew point: 54 °F

Location of StaffordLocation

Historic Weather in Stafford — Graph

°F

Stafford temperature yesterday

Maximum temperature yesterday: 81 °F (at 4:50 PM)
Minimum temperature yesterday: 54 °F (at 5:50 AM)
Average temperature yesterday: 69 °F

Past Weeks' High & Low Weather Summary

 TemperatureHumidityPressure
High81 °F (Jul 18, 2:50 PM)100% (Jul 11, 5:50 AM)30.24 "Hg (Jul 11, 5:50 AM)
Low46 °F (Jul 14, 2:50 AM)32% (Jul 24, 4:50 PM)29.71 "Hg (Jul 19, 4:50 PM)
Average65 °F75%30.01 "Hg
* Reported Jul 10 6:50 PM — Jul 25 6:50 PM, Stafford, Weather by CustomWeather, © 2014

Note: Actual official high and low records may vary slightly from our data, if they occured in-between our weather recording intervals... More about our weather records

Advertising

Stafford weather history for previous 24 hours

 ConditionsComfort  
Time TempWeatherWind HumidityBarometerVisibility
6:50 PM
Jul 25
79 °FPleasantly warm.9 mph39%30.04 "HgN/A
5:50 PM81 °FPleasantly warm.9 mph37%30.04 "HgN/A
4:50 PM81 °FSunny.9 mph34%30.04 "Hg10 mi
3:50 PM81 °FSunny.9 mph39%30.07 "Hg10 mi
2:50 PM79 °FSunny.12 mph39%30.07 "Hg10 mi
1:50 PM79 °FSunny.8 mph42%30.07 "Hg10 mi
12:50 PM77 °FPassing clouds.8 mph57%30.07 "HgN/A
11:50 AM75 °FSunny.9 mph54%30.09 "Hg10 mi
10:50 AM73 °FSunny.9 mph53%30.09 "Hg10 mi
9:50 AM70 °FSunny.8 mph57%30.09 "Hg10 mi
8:50 AM66 °FSunny.3 mph68%30.09 "Hg10 mi
7:50 AM63 °FSunny.7 mph77%30.09 "Hg10 mi
6:50 AM55 °FSunny.6 mph88%30.09 "Hg10 mi
5:50 AM54 °FCool.1 mph94%30.09 "HgN/A
4:50 AM54 °FCool.2 mph94%30.09 "HgN/A
3:50 AM54 °FCool.2 mph94%30.09 "HgN/A
2:50 AM59 °FCool.1 mph82%30.09 "HgN/A
1:50 AM59 °FPassing clouds.5 mph82%30.09 "HgN/A
12:50 AM63 °FMild.5 mph73%30.12 "HgN/A
11:50 PM
Jul 24
64 °FMild.5 mph68%30.09 "HgN/A
10:50 PM68 °FMild.6 mph56%30.09 "HgN/A
9:50 PM70 °FMild.7 mph53%30.09 "HgN/A
8:50 PM73 °FMild.7 mph47%30.07 "HgN/A
Weather by CustomWeather, © 2014

See weather overviewHow to use our weather pages